Weather History for Buffalo, WY

Change the Weather History Date:

Tuesday, October 30, 2012

  Actual Average Record
Temperature  
Mean Temperature 50 °F 42 °F  
Max Temperature 60 °F 53 °F 69 °F (2008)
Min Temperature 41 °F 30 °F 8 °F (2002)
Degree Days  
Heating Degree Days 14 24  
Month to date heating degree days 568  
Since 1 July heating degree days 882  
Cooling Degree Days 0 0  
Month to date cooling degree days 0  
Year to date cooling degree days 491  
Moisture  
Dew Point 31 °F    
Average Humidity 50    
Maximum Humidity 66    
Minimum Humidity 35    
Precipitation  
Precipitation 0.00 in 0.01 in 0.09 in (1998)
Month to date precipitation 0.92  
Year to date precipitation 12.50  
Sea Level Pressure  
Sea Level Pressure 30.03 in    
Wind  
Wind Speed 5 mph (SW)    
Max Wind Speed 9 mph    
Max Gust Speed -    
Visibility 10 miles    
Events      
T = Trace of Precipitation, MM = Missing Value Source: NWS Daily Summary

Daily Weather History Graph

Daily Weather History Graph

Search for Another Location

Airport:

Trip Planner

Search our weather history database for the weather conditions in past years. The results will help you decide how hot, cold, wet, or windy it might be!

Date:

Astronomy

Oct. 30, 2012 Rise Set
Actual Time 7:42 AM MDT 5:58 PM MDT
Civil Twilight 7:11 AM MDT 6:28 PM MDT
Nautical Twilight 6:37 AM MDT 7:02 PM MDT
Astronomical Twilight 6:03 AM MDT 7:36 PM MDT
Moon 6:26 PM MDT (10/30) 8:34 AM MDT (10/30)
Length of Visible Light 11h 16m
Length of Day
10h 16m
Full, 99% of the Moon is Illuminated
Oct 30
Full
Nov 6
Last Quarter
Nov 13
New
Nov 20
First Quarter
Nov 28
Full

Hourly Weather History & Observations

Time (MDT) Temp. Windchill Dew Point Humidity Pressure Visibility Wind Dir Wind Speed Gust Speed Precip Events Conditions
12:53 AM 55.0 °F - 28.0 °F 35% 29.96 in 10.0 mi Calm Calm - N/A   Clear
1:53 AM 45.0 °F 41.8 °F 28.9 °F 53% 29.99 in 10.0 mi West 5.8 mph - N/A   Clear
2:53 AM 46.0 °F 44.8 °F 28.9 °F 51% 30.00 in 10.0 mi West 3.5 mph - N/A   Partly Cloudy
3:53 AM 43.0 °F 38.2 °F 30.0 °F 60% 30.01 in 10.0 mi WNW 8.1 mph - N/A   Clear
5:53 AM 41.0 °F 38.0 °F 30.0 °F 65% 30.06 in 10.0 mi SW 4.6 mph - N/A   Clear
6:53 AM 41.0 °F 35.8 °F 30.0 °F 65% 30.07 in 10.0 mi WSW 8.1 mph - N/A   Clear
7:53 AM 46.0 °F 41.4 °F 33.1 °F 61% 30.06 in 10.0 mi West 9.2 mph - N/A   Clear
8:53 AM 46.9 °F - 36.0 °F 66% 30.07 in 10.0 mi West 6.9 mph - N/A   Clear
9:53 AM 53.1 °F - 35.1 °F 50% 30.08 in 10.0 mi WNW 6.9 mph - N/A   Clear
10:53 AM 53.1 °F - 35.1 °F 50% 30.08 in 10.0 mi NW 5.8 mph - N/A   Clear
11:53 AM 57.0 °F - 30.0 °F 36% 30.03 in 10.0 mi Calm Calm - N/A   Clear
12:53 PM 57.9 °F - 30.9 °F 36% 30.02 in 10.0 mi East 3.5 mph - N/A   Clear
1:53 PM 59.0 °F - 30.9 °F 35% 30.01 in 10.0 mi South 6.9 mph - N/A   Clear
2:53 PM 60.1 °F - 32.0 °F 35% 30.00 in 10.0 mi SE 6.9 mph - N/A   Clear
3:53 PM 59.0 °F - 30.9 °F 35% 30.01 in 10.0 mi SSE 8.1 mph - N/A   Clear
4:53 PM 57.0 °F - 32.0 °F 39% 30.01 in 10.0 mi SSE 8.1 mph - N/A   Clear
5:53 PM 50.0 °F - 32.0 °F 50% 30.04 in 10.0 mi South 5.8 mph - N/A   Clear
6:53 PM 51.1 °F - 33.1 °F 50% 30.04 in 10.0 mi South 9.2 mph - N/A   Clear
7:53 PM 48.0 °F - 33.1 °F 56% 30.02 in 10.0 mi Calm Calm - N/A   Clear
8:53 PM 44.1 °F - 33.1 °F 65% 30.02 in 10.0 mi Calm Calm - N/A   Clear
9:53 PM 45.0 °F 43.5 °F 30.0 °F 56% 30.01 in 10.0 mi SSW 3.5 mph - N/A   Clear
10:53 PM 45.0 °F - 30.0 °F 56% 30.01 in 10.0 mi Calm Calm - N/A   Clear
11:53 PM 46.0 °F 42.5 °F 27.0 °F 47% 29.98 in 10.0 mi NW 6.9 mph - N/A   Clear